Boleslawiec, Poland

4:23 AM CEST on October 18, 2017 (GMT +0200)
Boleslawiec

Weather History for 12500 - March, 2014

Change the Weather History Date:

Friday, March 21, 2014

  Actual Average Record
Temperature  
Mean Temperature 56 °F -  
Max Temperature 68 °F - - ()
Min Temperature 43 °F - - ()
Degree Days  
Heating Degree Days 10    
Growing Degree Days 6 (Base 50)    
Moisture  
Dew Point 35 °F    
Average Humidity 27    
Maximum Humidity 55    
Minimum Humidity 17    
Precipitation  
Precipitation 0.00 in - - ()
Sea Level Pressure  
Sea Level Pressure 29.86 in    
Wind  
Wind Speed 9 mph ()    
Max Wind Speed 16 mph    
Max Gust Speed -    
Visibility 19.0 miles    
Events      
T = Trace of Precipitation, MM = Missing Value Source: Averaged Metar Reports

Daily Weather History Graph

Daily Weather History Graph

Search for Another Location

Airport or City:

Trip Planner

Search our weather history database for the weather conditions in past years. The results will help you decide how hot, cold, wet, or windy it might be!

Date:

Astronomy

Mar. 21, 2014 Rise Set
Actual Time 5:57 AM CET 6:11 PM CET
Civil Twilight 5:24 AM CET 6:44 PM CET
Nautical Twilight 4:46 AM CET 7:23 PM CET
Astronomical Twilight 4:05 AM CET 8:03 PM CET
Moon 11:44 PM CET (3/21) 8:07 AM CET (3/21)
Length of Visible Light 13h 19m
Length of Day
12h 13m
Waning Gibbous, 77% of the Moon is Illuminated
Mar 21
Waning Gibbous
Mar 24
Last Quarter
Mar 30
New
Apr 7
First Quarter
Apr 15
Full

Hourly Weather History & Observations

Time (CET) Temp. Dew Point Humidity Pressure Visibility Wind Dir Wind Speed Gust Speed Precip Events Conditions
12:00 AM 59 °F 31 °F 22% 29.94 in 31 mi ESE 11.2 mph - -   Clear
1:00 AM 55 °F 32 °F 29% 29.93 in 31 mi North 4.5 mph - -   Clear
2:00 AM 56 °F 32 °F 27% 29.92 in 31 mi ENE 11.2 mph - -   Clear
3:00 AM 58 °F 31 °F 24% 29.92 in 31 mi SW 13.4 mph - -   Clear
4:00 AM 56 °F 31 °F 27% 29.91 in 31 mi SW 6.7 mph - -   Scattered Clouds
5:00 AM 50 °F 33 °F 39% 29.93 in 31 mi NW 2.2 mph - -   Scattered Clouds
6:00 AM 45 °F 34 °F 55% 29.94 in 31 mi NE 6.7 mph - -   Scattered Clouds
7:00 AM 59 °F 34 °F 27% 29.91 in 28 mi SW 13.4 mph - -   Clear
8:00 AM 61 °F 35 °F 26% 29.91 in 28 mi WSW 11.2 mph - -   Clear
9:00 AM 64 °F 33 °F 20% 29.89 in 22 mi SW 11.2 mph - -   Clear
10:00 AM 65 °F 35 °F 22% 29.88 in 19 mi SW 11.2 mph - -   Clear
11:00 AM 67 °F 35 °F 20% 29.86 in 22 mi WSW 15.7 mph - -   Clear
12:00 PM 67 °F 35 °F 20% 29.86 in 28 mi SW 13.4 mph - -   Clear
1:00 PM 67 °F 38 °F 23% 29.84 in 22 mi SSW 13.4 mph - -   Scattered Clouds
2:00 PM 68 °F 37 °F 21% 29.82 in 22 mi SW 13.4 mph - -   Partly Cloudy
3:00 PM 66 °F 39 °F 25% 29.80 in 19 mi SSW 8.9 mph - -   Mostly Cloudy
4:00 PM 68 °F 42 °F 27% 29.75 in 22 mi SSW 13.4 mph - -   Scattered Clouds
5:00 PM 67 °F 34 °F 18% 29.75 in 28 mi SW 13.4 mph - -   Scattered Clouds
6:00 PM 65 °F 33 °F 19% 29.77 in 31 mi SW 11.2 mph - -   Scattered Clouds
7:00 PM 65 °F 31 °F 17% 29.78 in 31 mi SW 11.2 mph - -   Scattered Clouds
8:00 PM 60 °F 36 °F 29% 29.80 in 28 mi South 4.5 mph - -   Scattered Clouds
9:00 PM 61 °F 38 °F 31% 29.81 in 28 mi SW 11.2 mph - -   Scattered Clouds
10:00 PM 57 °F 38 °F 37% 29.84 in 19 mi SSW 4.5 mph - -   Mostly Cloudy
11:00 PM 60 °F 38 °F 32% 29.83 in 31 mi West 13.4 mph - -   Mostly Cloudy